SERT 2 (4327 NORAD) Tracking and Keplerian Element Data

This shows tracking and keplerian element data for the satellite.

Feedback or suggestion? Click here.




ElementValue
Catalog4327
NameSERT 2
Epoch Orbit67305
Epoch Day12.92711372
Epoch Year2024
RAAN352.419
Inclination99.1663
Eccentricity0.0005296
Argument of Perigee26.1445
Mean Anonmoly28.62
Mean Motion13.5859213
Decay Rate7E-08
L11 04327U 70009A 24012.92711372 .00000007 00000+0 64634-4 0 9996
L22 04327 99.1663 352.4190 0005296 26.1445 28.6200 13.58592130673056



Live tracking and technical data element details for SERT 2 (NORAD 4327). SERT 2 can be tracked NOW for your location showing map with azimuth and elevation plus other details from your city location.







IsCatalogInMostPopularTable: catalog: 4327, numindb: 319
Update: records affected: 1



GetName: 4327 SERT 2

Hit Count: updated at: Mon, 15 Apr 2024 00:12:03 GMT